AAL7 KPWM-KPHL

Flight info

Callsign AAL7
Flight time 1h 2m
Altitude 36000
Route NUBLE4 JJIMY ORW RIFLE Q439 BRIGS JIIMS4
Aircraft A319/M-SDE3FGHIRWY/LB1

Departure

Time 2026-05-05 00:34
Airport Portland International Jetport (KPWM)

Arrival

Time 2026-05-05 01:36
Airport Philadelphia International Airport (KPHL)
Time Latitude Longitude Altitude Speed Heading
2026-05-05 00:16 43.64677 -70.31176 63 ft 0 kts 23°
2026-05-05 00:26 43.64677 -70.31177 63 ft 0 kts 23°
2026-05-05 00:26 43.64664 -70.31184 58 ft 3 kts 23°
2026-05-05 00:26 43.64646 -70.31195 58 ft 3 kts 23°
2026-05-05 00:27 43.64627 -70.31205 57 ft 3 kts 19°
2026-05-05 00:27 43.64609 -70.31214 59 ft 3 kts 39°
2026-05-05 00:27 43.64604 -70.31221 55 ft 2 kts 95°
2026-05-05 00:27 43.64605 -70.31243 58 ft 2 kts 95°
2026-05-05 00:28 43.64606 -70.31247 57 ft 0 kts 95°
2026-05-05 00:31 43.64605 -70.31245 57 ft 2 kts 95°
2026-05-05 00:31 43.64600 -70.31165 59 ft 15 kts 96°
2026-05-05 00:32 43.64588 -70.30997 55 ft 19 kts 95°
2026-05-05 00:32 43.64575 -70.30792 59 ft 24 kts 95°
2026-05-05 00:32 43.64559 -70.30555 56 ft 26 kts 95°
2026-05-05 00:32 43.64540 -70.30291 57 ft 30 kts 95°
2026-05-05 00:33 43.64521 -70.30035 54 ft 23 kts 97°
2026-05-05 00:33 43.64425 -70.29950 48 ft 22 kts 241°
2026-05-05 00:33 43.64425 -70.30283 56 ft 64 kts 275°
2026-05-05 00:33 43.64493 -70.31292 65 ft 141 kts 275°
2026-05-05 00:34 43.64599 -70.32834 425 ft 169 kts 274°
2026-05-05 00:34 43.64677 -70.34432 1269 ft 164 kts 270°
2026-05-05 00:34 43.64732 -70.35990 2139 ft 163 kts 270°
2026-05-05 00:34 43.64787 -70.37640 2573 ft 183 kts 270°
2026-05-05 00:35 43.64854 -70.39521 2954 ft 209 kts 271°
2026-05-05 00:35 43.64933 -70.41641 3511 ft 233 kts 271°
2026-05-05 00:35 43.64987 -70.43930 4438 ft 242 kts 265°
2026-05-05 00:35 43.64352 -70.46071 5450 ft 250 kts 231°
2026-05-05 00:36 43.62997 -70.47575 6511 ft 256 kts 219°
2026-05-05 00:36 43.61509 -70.48953 7510 ft 260 kts 218°
2026-05-05 00:36 43.59976 -70.50318 8496 ft 265 kts 218°
2026-05-05 00:36 43.58410 -70.51706 9451 ft 270 kts 218°
2026-05-05 00:37 43.56814 -70.53128 10290 ft 278 kts 218°
2026-05-05 00:37 43.55104 -70.54675 10666 ft 302 kts 218°
2026-05-05 00:37 43.53299 -70.56288 11264 ft 316 kts 215°
2026-05-05 00:37 43.51284 -70.57525 12009 ft 328 kts 203°
2026-05-05 00:38 43.49075 -70.58435 12797 ft 334 kts 202°
2026-05-05 00:38 43.46833 -70.59347 13612 ft 338 kts 202°
2026-05-05 00:38 43.44560 -70.60271 14323 ft 342 kts 202°
2026-05-05 00:38 43.42264 -70.61206 15048 ft 345 kts 202°
2026-05-05 00:39 43.39948 -70.62151 15780 ft 348 kts 202°
2026-05-05 00:39 43.37617 -70.63105 16504 ft 351 kts 202°
2026-05-05 00:39 43.35260 -70.64071 17237 ft 355 kts 202°
2026-05-05 00:39 43.32884 -70.65045 17952 ft 358 kts 201°
2026-05-05 00:40 43.30493 -70.66023 18623 ft 360 kts 201°
2026-05-05 00:40 43.28075 -70.67009 19233 ft 364 kts 201°
2026-05-05 00:40 43.25632 -70.68002 19840 ft 368 kts 201°
2026-05-05 00:40 43.23166 -70.69000 20446 ft 372 kts 201°
2026-05-05 00:41 43.20668 -70.70010 21046 ft 376 kts 201°
2026-05-05 00:41 43.18146 -70.71028 21628 ft 380 kts 202°
2026-05-05 00:41 43.15686 -70.72315 22203 ft 378 kts 211°
2026-05-05 00:41 43.13347 -70.73993 22793 ft 381 kts 213°
2026-05-05 00:42 43.10991 -70.75698 23372 ft 385 kts 213°
2026-05-05 00:42 43.08609 -70.77418 23854 ft 389 kts 213°
2026-05-05 00:42 43.06205 -70.79150 24325 ft 392 kts 213°
2026-05-05 00:42 43.03776 -70.80895 24783 ft 396 kts 213°
2026-05-05 00:43 43.01322 -70.82651 25238 ft 400 kts 213°
2026-05-05 00:43 42.98844 -70.84419 25691 ft 404 kts 213°
2026-05-05 00:43 42.96342 -70.86202 26120 ft 408 kts 213°
2026-05-05 00:43 42.93815 -70.88000 26564 ft 411 kts 213°
2026-05-05 00:44 42.91262 -70.89815 27005 ft 415 kts 213°
2026-05-05 00:44 42.88692 -70.91645 27470 ft 419 kts 213°
2026-05-05 00:44 42.86092 -70.93493 27906 ft 423 kts 214°
2026-05-05 00:44 42.83454 -70.95321 28337 ft 429 kts 210°
2026-05-05 00:45 42.80638 -70.96789 28736 ft 436 kts 205°
2026-05-05 00:45 42.77767 -70.98184 29169 ft 440 kts 205°
2026-05-05 00:45 42.74874 -70.99593 29593 ft 443 kts 206°
2026-05-05 00:45 42.71958 -71.01014 29992 ft 447 kts 206°
2026-05-05 00:46 42.69014 -71.02448 30335 ft 450 kts 206°
2026-05-05 00:46 42.66054 -71.03893 30670 ft 454 kts 206°
2026-05-05 00:46 42.63069 -71.05349 30988 ft 457 kts 205°
2026-05-05 00:46 42.60104 -71.06787 31293 ft 460 kts 205°
2026-05-05 00:47 42.57068 -71.08257 31612 ft 463 kts 205°
2026-05-05 00:47 42.54029 -71.09727 32029 ft 464 kts 205°
2026-05-05 00:47 42.50990 -71.11194 32481 ft 464 kts 205°
2026-05-05 00:47 42.47949 -71.12660 32949 ft 464 kts 205°
2026-05-05 00:48 42.44905 -71.14127 33377 ft 464 kts 206°
2026-05-05 00:48 42.41964 -71.15866 33791 ft 459 kts 214°
2026-05-05 00:48 42.39271 -71.18114 34177 ft 452 kts 223°
2026-05-05 00:48 42.36754 -71.20633 34628 ft 449 kts 223°
2026-05-05 00:49 42.34249 -71.23132 35106 ft 447 kts 222°
2026-05-05 00:49 42.32591 -71.24777 35423 ft 445 kts 222°
2026-05-05 00:49 42.30103 -71.27241 35763 ft 443 kts 222°
2026-05-05 00:50 42.25162 -71.32125 35881 ft 440 kts 221°
2026-05-05 00:50 42.20143 -71.37092 35893 ft 455 kts 221°
2026-05-05 00:51 42.14981 -71.42185 35914 ft 461 kts 221°
2026-05-05 00:51 42.09786 -71.47296 35907 ft 462 kts 221°
2026-05-05 00:52 42.04589 -71.52390 35920 ft 462 kts 221°
2026-05-05 00:52 41.99382 -71.57481 35919 ft 462 kts 221°
2026-05-05 00:53 41.94189 -71.62565 35915 ft 462 kts 221°
2026-05-05 00:53 41.89025 -71.67603 35900 ft 462 kts 221°
2026-05-05 00:54 41.83826 -71.72660 35908 ft 461 kts 221°
2026-05-05 00:54 41.78632 -71.77719 35925 ft 461 kts 221°
2026-05-05 00:55 41.73438 -71.82763 35908 ft 461 kts 220°
2026-05-05 00:55 41.68229 -71.87796 35920 ft 461 kts 220°
2026-05-05 00:56 41.63031 -71.92811 35918 ft 461 kts 220°
2026-05-05 00:56 41.57831 -71.97822 35908 ft 460 kts 220°
2026-05-05 00:57 41.52303 -72.02216 35916 ft 466 kts 211°
2026-05-05 00:57 41.46528 -72.06139 35942 ft 466 kts 211°
2026-05-05 00:58 41.40756 -72.10062 35947 ft 466 kts 211°
2026-05-05 00:58 41.34985 -72.13978 35948 ft 465 kts 211°
2026-05-05 00:59 41.29252 -72.17863 35948 ft 465 kts 211°
2026-05-05 00:59 41.23476 -72.21767 35948 ft 465 kts 211°
2026-05-05 01:00 41.17709 -72.25643 35922 ft 462 kts 211°
2026-05-05 01:00 41.14840 -72.27567 35627 ft 462 kts 211°
2026-05-05 01:00 41.11985 -72.29490 35183 ft 459 kts 212°
2026-05-05 01:00 41.09143 -72.31408 34741 ft 457 kts 212°
2026-05-05 01:01 41.06309 -72.33314 34310 ft 456 kts 212°
2026-05-05 01:01 41.03478 -72.35212 33866 ft 456 kts 212°
2026-05-05 01:01 41.00655 -72.37102 33353 ft 453 kts 212°
2026-05-05 01:01 40.97851 -72.38978 32859 ft 450 kts 212°
2026-05-05 01:02 40.95065 -72.40843 32377 ft 446 kts 212°
2026-05-05 01:02 40.92311 -72.42682 31896 ft 441 kts 212°
2026-05-05 01:02 40.89582 -72.44499 31457 ft 437 kts 212°
2026-05-05 01:02 40.86884 -72.46295 30997 ft 432 kts 212°
2026-05-05 01:03 40.84210 -72.48074 30529 ft 428 kts 211°
2026-05-05 01:03 40.81560 -72.49835 30084 ft 424 kts 211°
2026-05-05 01:03 40.78934 -72.51580 29573 ft 421 kts 211°
2026-05-05 01:03 40.76332 -72.53311 29059 ft 417 kts 211°
2026-05-05 01:04 40.73753 -72.55024 28557 ft 413 kts 211°
2026-05-05 01:04 40.68803 -72.58662 27582 ft 399 kts 223°
2026-05-05 01:04 40.66777 -72.61103 27108 ft 391 kts 230°
2026-05-05 01:05 40.64887 -72.63598 26635 ft 388 kts 229°
2026-05-05 01:05 40.62983 -72.66095 26172 ft 385 kts 229°
2026-05-05 01:05 40.61089 -72.68568 25724 ft 382 kts 229°
2026-05-05 01:05 40.59206 -72.71020 25277 ft 380 kts 229°
2026-05-05 01:06 40.57335 -72.73451 24844 ft 377 kts 229°
2026-05-05 01:06 40.55475 -72.75873 24415 ft 375 kts 229°
2026-05-05 01:06 40.53595 -72.78325 23993 ft 392 kts 229°
2026-05-05 01:06 40.51592 -72.80935 23565 ft 418 kts 228°
2026-05-05 01:07 40.49454 -72.83614 23058 ft 429 kts 226°
2026-05-05 01:07 40.47231 -72.86299 22568 ft 443 kts 225°
2026-05-05 01:07 40.44919 -72.89038 22074 ft 449 kts 225°
2026-05-05 01:07 40.42594 -72.91774 21601 ft 448 kts 225°
2026-05-05 01:08 40.40281 -72.94504 21138 ft 445 kts 225°
2026-05-05 01:08 40.37994 -72.97226 20669 ft 442 kts 225°
2026-05-05 01:08 40.35743 -72.99945 20217 ft 437 kts 228°
2026-05-05 01:08 40.33897 -73.03046 19973 ft 429 kts 241°
2026-05-05 01:09 40.32635 -73.06548 19984 ft 425 kts 253°
2026-05-05 01:09 40.31682 -73.10217 19980 ft 425 kts 253°
2026-05-05 01:09 40.30728 -73.13885 19972 ft 426 kts 253°
2026-05-05 01:09 40.29775 -73.17558 19980 ft 426 kts 253°
2026-05-05 01:10 40.28824 -73.21238 19980 ft 426 kts 253°
2026-05-05 01:10 40.27878 -73.24916 19981 ft 426 kts 253°
2026-05-05 01:10 40.26944 -73.28550 19981 ft 426 kts 253°
2026-05-05 01:10 40.26000 -73.32228 19980 ft 426 kts 253°
2026-05-05 01:11 40.25057 -73.35905 19981 ft 426 kts 253°
2026-05-05 01:11 40.24107 -73.39578 19973 ft 426 kts 253°
2026-05-05 01:11 40.23154 -73.43249 19985 ft 426 kts 253°
2026-05-05 01:11 40.22199 -73.46927 19984 ft 426 kts 253°
2026-05-05 01:12 40.21246 -73.50597 19985 ft 426 kts 253°
2026-05-05 01:12 40.20293 -73.54266 19977 ft 426 kts 253°
2026-05-05 01:12 40.19337 -73.57933 19977 ft 426 kts 253°
2026-05-05 01:12 40.18379 -73.61598 19977 ft 426 kts 253°
2026-05-05 01:13 40.17419 -73.65262 19972 ft 426 kts 253°
2026-05-05 01:13 40.16460 -73.68921 19972 ft 426 kts 253°
2026-05-05 01:13 40.15504 -73.72587 19973 ft 426 kts 253°
2026-05-05 01:13 40.14559 -73.76261 19975 ft 426 kts 253°
2026-05-05 01:14 40.13586 -73.79914 19961 ft 427 kts 250°
2026-05-05 01:14 40.12071 -73.83266 19960 ft 433 kts 234°
2026-05-05 01:14 40.09858 -73.85957 19973 ft 440 kts 218°
2026-05-05 01:14 40.07103 -73.87746 19976 ft 446 kts 204°
2026-05-05 01:15 40.04189 -73.89153 19980 ft 447 kts 204°
2026-05-05 01:15 40.01270 -73.90548 19988 ft 447 kts 204°
2026-05-05 01:15 39.98348 -73.91938 19972 ft 447 kts 204°
2026-05-05 01:15 39.95426 -73.93330 19979 ft 447 kts 204°
2026-05-05 01:16 39.92499 -73.94728 19971 ft 448 kts 204°
2026-05-05 01:16 39.89575 -73.96126 19973 ft 448 kts 204°
2026-05-05 01:16 39.86649 -73.97529 19844 ft 449 kts 204°
2026-05-05 01:16 39.83741 -73.98923 19550 ft 438 kts 204°
2026-05-05 01:17 39.80938 -74.00261 19310 ft 419 kts 204°
2026-05-05 01:17 39.78255 -74.01537 19064 ft 402 kts 204°
2026-05-05 01:17 39.75665 -74.02768 18757 ft 391 kts 204°
2026-05-05 01:17 39.73140 -74.03971 18335 ft 383 kts 204°
2026-05-05 01:18 39.70667 -74.05150 17857 ft 375 kts 204°
2026-05-05 01:18 39.68242 -74.06308 17375 ft 367 kts 204°
2026-05-05 01:18 39.65864 -74.07443 16760 ft 363 kts 204°
2026-05-05 01:18 39.63473 -74.08587 15733 ft 371 kts 204°
2026-05-05 01:19 39.61058 -74.09737 15158 ft 366 kts 204°
2026-05-05 01:19 39.58686 -74.10861 14672 ft 359 kts 204°
2026-05-05 01:19 39.56474 -74.12225 14214 ft 346 kts 217°
2026-05-05 01:19 39.54715 -74.14214 14045 ft 325 kts 232°
2026-05-05 01:20 39.53502 -74.16518 14049 ft 303 kts 245°
2026-05-05 01:20 39.52761 -74.19056 14059 ft 294 kts 258°
2026-05-05 01:20 39.52512 -74.21672 14046 ft 292 kts 270°
2026-05-05 01:20 39.52570 -74.24264 14047 ft 292 kts 272°
2026-05-05 01:21 39.52626 -74.26893 14045 ft 292 kts 271°
2026-05-05 01:21 39.52678 -74.29522 14045 ft 292 kts 271°
2026-05-05 01:21 39.52727 -74.32185 14045 ft 292 kts 271°
2026-05-05 01:21 39.52773 -74.34777 14045 ft 292 kts 271°
2026-05-05 01:22 39.52817 -74.37416 13849 ft 293 kts 271°
2026-05-05 01:22 39.52862 -74.40043 13599 ft 292 kts 271°
2026-05-05 01:22 39.52906 -74.42664 13333 ft 290 kts 271°
2026-05-05 01:22 39.52950 -74.45276 13062 ft 289 kts 271°
2026-05-05 01:23 39.52996 -74.47872 12818 ft 286 kts 271°
2026-05-05 01:23 39.53042 -74.50417 12533 ft 280 kts 272°
2026-05-05 01:23 39.53087 -74.52924 12193 ft 277 kts 272°
2026-05-05 01:23 39.53131 -74.55403 11846 ft 274 kts 272°
2026-05-05 01:24 39.53174 -74.57859 11500 ft 271 kts 272°
2026-05-05 01:24 39.53212 -74.60290 11159 ft 269 kts 272°
2026-05-05 01:24 39.53247 -74.62708 10817 ft 267 kts 272°
2026-05-05 01:24 39.53282 -74.65106 10477 ft 265 kts 272°
2026-05-05 01:25 39.53317 -74.67485 10138 ft 263 kts 272°
2026-05-05 01:25 39.53354 -74.69850 9797 ft 262 kts 272°
2026-05-05 01:25 39.53393 -74.72201 9437 ft 260 kts 272°
2026-05-05 01:25 39.53431 -74.74530 9116 ft 258 kts 271°
2026-05-05 01:26 39.53469 -74.76863 9033 ft 260 kts 272°
2026-05-05 01:26 39.53507 -74.79207 9035 ft 261 kts 271°
2026-05-05 01:26 39.53543 -74.81559 9033 ft 261 kts 271°
2026-05-05 01:26 39.53701 -74.83899 8984 ft 262 kts 284°
2026-05-05 01:27 39.54523 -74.85993 8847 ft 264 kts 307°
2026-05-05 01:27 39.55994 -74.87440 8725 ft 272 kts 332°
2026-05-05 01:27 39.57854 -74.88029 8589 ft 277 kts 346°
2026-05-05 01:27 39.59764 -74.88417 8332 ft 279 kts 346°
2026-05-05 01:28 39.61692 -74.88801 7873 ft 281 kts 346°
2026-05-05 01:28 39.63630 -74.89188 7419 ft 283 kts 346°
2026-05-05 01:28 39.65578 -74.89580 6969 ft 284 kts 346°
2026-05-05 01:28 39.67536 -74.89978 6532 ft 285 kts 346°
2026-05-05 01:29 39.69501 -74.90378 6104 ft 286 kts 346°
2026-05-05 01:29 39.71427 -74.90767 6000 ft 274 kts 346°
2026-05-05 01:29 39.73284 -74.91140 6010 ft 268 kts 346°
2026-05-05 01:29 39.75119 -74.91514 6012 ft 267 kts 346°
2026-05-05 01:30 39.76950 -74.91895 6012 ft 266 kts 345°
2026-05-05 01:30 39.78783 -74.92283 5957 ft 268 kts 345°
2026-05-05 01:30 39.80641 -74.92687 5449 ft 275 kts 345°
2026-05-05 01:30 39.82540 -74.93104 4946 ft 279 kts 345°
2026-05-05 01:31 39.83815 -74.93383 4617 ft 282 kts 345°
2026-05-05 01:31 39.85760 -74.93816 4105 ft 285 kts 345°
2026-05-05 01:31 39.87719 -74.94273 3601 ft 287 kts 345°
2026-05-05 01:31 39.89669 -74.94851 3131 ft 285 kts 334°
2026-05-05 01:32 39.91203 -74.96275 3005 ft 262 kts 303°
2026-05-05 01:32 39.91926 -74.98295 3010 ft 236 kts 276°
2026-05-05 01:32 39.91876 -75.00305 3002 ft 211 kts 253°
2026-05-05 01:32 39.91516 -75.02112 2968 ft 204 kts 252°
2026-05-05 01:33 39.91166 -75.03889 2777 ft 197 kts 252°
2026-05-05 01:33 39.90838 -75.05558 2549 ft 186 kts 252°
2026-05-05 01:33 39.90520 -75.07166 2352 ft 182 kts 250°
2026-05-05 01:33 39.90205 -75.08759 2094 ft 181 kts 250°
2026-05-05 01:34 39.89893 -75.10334 1852 ft 181 kts 250°
2026-05-05 01:34 39.89579 -75.11920 1618 ft 180 kts 249°
2026-05-05 01:34 39.89265 -75.13506 1375 ft 180 kts 249°
2026-05-05 01:34 39.88969 -75.15013 1137 ft 163 kts 250°
2026-05-05 01:35 39.88705 -75.16349 940 ft 150 kts 249°
2026-05-05 01:35 39.88440 -75.17674 753 ft 150 kts 252°
2026-05-05 01:35 39.88177 -75.18989 555 ft 150 kts 251°
2026-05-05 01:35 39.87907 -75.20300 407 ft 151 kts 251°
2026-05-05 01:36 39.87650 -75.21608 171 ft 148 kts 253°
2026-05-05 01:36 39.87407 -75.22883 35 ft 134 kts 251°
2026-05-05 01:36 39.87204 -75.23849 26 ft 68 kts 255°
2026-05-05 01:36 39.87205 -75.24125 27 ft 25 kts 313°
2026-05-05 01:37 39.87301 -75.24190 26 ft 16 kts 334°
2026-05-05 01:37 39.87374 -75.24229 29 ft 10 kts 347°
2026-05-05 01:37 39.87415 -75.24224 28 ft 1 kts 51°
2026-05-05 01:37 39.87428 -75.24200 28 ft 5 kts 56°
2026-05-05 01:38 39.87439 -75.24178 27 ft 2 kts 56°
2026-05-05 01:38 39.87440 -75.24177 27 ft 0 kts 56°